ATLAS 5 CENTAUR DEB, 43981

Orbit data source: Space-Track

ATLAS 5 CENTAUR DEB, 43981 is space debris in HEO originally from a launch on Wed, 17 Sep 2014 UTC launched from the Air Force Eastern Test Range (AFETR). Debris objects in space refer to the collection of defunct objects orbiting the Earth. Examples of debris include non-operational satellites, rocket bodies, and fragments generated from explosions, collisions, or faulty payload assembly.

Loading next visibility...
Identifier
43981, 2014-055AL
Orbit
HEO
Last TLE update
1 day ago
Origin
Flag of USUnited Launch Alliance/Lockheed Martin (US)
Manufacturer
Unknown
Mission
Spacecraft
Bus & Motor
Unknown
Mass
Unknown
Launch date (UTC)
2014-09-17 (11 years ago)
Launch vehicle
Unknown
Launch site
Air Force Eastern Test Range (AFETR)
Object type
Payload
Rocket body
Debris
Shape & HBR
Unknown
Radar Cross Section
Small (<0.1 m²)

Expand to show TLE details & history

TLE from 1 day ago
0 ATLAS 5 CENTAUR DEB
1 43981U 14055AL  25181.08215707 -.00000044  00000-0  00000-0 0  9996
2 43981  19.3399 173.5471 5213218 106.7981 314.6749  1.78787575 44482
Epoch: 2025-06-30T01:58Z
TLE epoch observation values (Epoch: 2025-06-30T01:58:18.37Z)
Latitude
-0.00003°
Longitude
-134.46066°
Altitude
18,185.687 km
Speed
4.307 km/s
True Right ascension
11h 34m 03s
True Declination
0° 00' 00"
Sunlit
Object was in daylight at epoch
Visualization orbit readout
Latitude
-18.77648°
Longitude
120.92599°
Altitude
31,460.033 km
Speed
2.678 km/s
Apparent Right ascension
05h 05m 48s
Apparent Declination
-23° 46' 09"
Sunlit
Object is in daylight
Visualization observer readout
Local Sidereal Time
22:01:43
Azimuth
99.491° ESE
Elevation
-26.895°
Doppler factor
1
Orbital elements
Apogee altitude
37,249.623 km
Perigee altitude
7,349.174 km
Semi-major axis
28,677.535 km
Eccentricity
0.52132
Inclination
19.3399°
RAAN
173.5471°
Arg. of periapsis
106.7981°
True anomaly
Unknown
Mean anomaly
314.6749°
Eccentric anomaly
Unknown
Mean motion
0.44692 °/min
Orbital period
805.51 mins
BSTAR
0
Loading maneuver chart data...
Loading SW <> Apogee altitude chart data...
Loading historical data...
Loading historical data...
Loading historical data...
Loading historical data...
Loading historical data...
Loading historical data...
Loading historical data...

ATLAS 5 CENTAUR DEB Visibility forecast

Observer location: undefined°, undefined°

Span
Click to sort rows by Start time (UTC) header in descending order
Start Az.
Max El. time (UTC)
Max El. Az.
Max El.
End time (UTC)
End Az.
78 mins2025-07-02 09:05:16.673Z265.058° W2025-07-02 09:40:16.673Z196.595° SSW34.419°2025-07-02 10:23:16.673Z140.462° SSE
|